Location: Munkebjergskolens Observatorium
(55.3864°N, 10.3987°E)
Time: 22:08:51
(UTC+01:00)

DELTA 1 DEB - Pass Details

Date: 03 December 2023
Orbit: 783 x 826 km, 98.9° (Epoch: 04 March)

Event Time Altitude Azimuth Distance (km) Brightness Sun altitude
Rises 19:34:10 0° 217° (SW) 3,291 ? -30.2°
Reaches altitude 10° 19:37:30 10° 240° (WSW) 2,376 ? -30.7°
Maximum altitude 19:40:31 15° 275° (W) 2,038 ? -31.1°
Drops below altitude 10° 19:43:35 10° 311° (NW) 2,403 ? -31.5°
Sets 19:47:00 0° 334° (NNW) 3,351 ? -32.0°
